sat.trackr.live / text

‹ back to catalog

YAOGAN-35 02A

NORAD 52907 · 2022-068A

PAYLOAD ACTIVE UNKNOWN

§ Identity

Operator
Country
PRC
Launch date
2022-06-23
Launch site
XICLF
Launch vehicle
Mass (kg)
RCS (m²)

External: N2YO · Heavens-Above · Gunter

§ Orbital elements

Epoch: 2026-09-20T23:51:28.138752Z

Period
94.41 min
Inclination
34.9905°
Eccentricity
0.0011915
Mean motion
15.25198900 rev/d
Perigee alt
482.0 km
Apogee alt
498.4 km
Semi-major
6,868.3 km
B*
1.6930e-4
RAAN
254.3946°
Arg perigee
229.8580°
Mean anomaly
130.1092°
Rev number
23,652

§ Raw data

YAOGAN-35 02A1 52907U 22068A   26263.99407568  .00004329  00000+0  16930-3 0  99972 52907  34.9905 254.3946 0011915 229.8580 130.1092 15.25198900236523

JSON: /api/v1/satellites/52907 · /tle

For live sub-satellite position, see the globe view (requires WebGL).

§ Visibility from observer

Set your observer location to see the next 7 days of passes ≥ 10°. The values pass through the URL so the page stays shareable.

No JS? Fill the form by hand. The geolocation button needs JavaScript.